13P/Olbers (2024)

Japanese version
Home page
Updated on April 16, 2025

---------------------------------------------------------------------

* Profile

Recovery Date August 13, 2023
Magnitude 21.6 mag
Recoverer A. Hale (Las Cumbres Observatory)

* Pictures

* Orbital Elements

Epoch 2025 May 5.0 TT = JDT 2460800.5
T 2024 June 30.07099 TT                                 Pike
q   1.1754661            (2000.0)            P               Q
n   0.01418364     Peri.   64.42199     -0.60856330     -0.37158204
a  16.9022360      Node    85.84669     +0.18547893     -0.92571571
e   0.9304550      Incl.   44.66594     +0.77152335     -0.07054930
P  69.5
From 2133 observations 2023 Oct. 8-2025 Feb. 14, mean residual 0".5.
     Nongravitational parameters A1 = +0.65, A2 = -0.0940.

* Finding Charts

* Magnitudes Graph

        m1 = 3.5 + 5 log d + 24.0 log r          [   ,  0]  (             - 2024 June 30)
        m1 = 4.0 + 5 log d + 14.0 log r(t - 20)  [  0,130]  (2024 June 30 - 2024 Nov.  7)
        m1 = 0.0 + 5 log d + 24.0 log r          [130,   ]  (2024 Nov.  7 -             )

---------------------------------------------------------------------

The orbital elements are published on M.P.E.C. 2025-D44.
The charts are made with StellaNavigator Ver.10 (AstroArts).
The magnitudes graphs are made with Comet for Windows.

---------------------------------------------------------------------

Copyright(C) Seiichi Yoshida (comet@aerith.net). All rights reserved.